Probability
0 0 0 0 0 0 0 0 0 0 0 0 0 0 0 0 0 0 0 0 0 0 0 0 0 0 0 2 4 6 7 6 5 6 6 4 2 2
0 0 0 0 0 0 0 0 0 0 0 0 0 0 0 0 0 0 0 0 0 0 0 0 0 0 0 1 2 4 4 3 2 3 4 2 2 3
0 0 0 0 0 0 0 0 0 0 0 0 0 0 0 0 0 0 0 0 0 0 0 0 0 0 0 0 0 1 1 0 0 1 2 1 1 1
0 0 0 0 0 0 0 0 0 0 0 0 0 0 0 0 0 0 0 0 0 0 0 0 0 0 0 0 0 0 0 0 0 0 1 1 1 0
0 0 0 0 0 0 0 0 0 0 0 0 0 0 0 0 0 0 0 0 0 0 0 0 0 0 0 0 0 0 0 0 0 0 0 1 1 1
0 0 0 0 0 0 0 0 0 0 0 0 0 0 0 0 0 0 0 0 0 0 0 0 0 0 0 0 0 0 0 0 0 0 0 0 0 0
0 0 0 0 0 0 0 0 0 0 0 0 0 0 0 0 0 0 0 0 0 0 0 0 0 0 0 0 0 0 0 0 0 0 0 0 0 0
0 0 0 0 0 0 0 0 0 0 0 0 0 0 0 0 0 0 0 0 0 0 0 0 0 0 0 1 0 0 0 0 0 0 0 0 0 0
0 0 0 0 0 0 0 0 0 0 0 0 0 0 0 0 0 0 0 0 0 0 0 0 0 0 0 0 0 0 0 0 0 0 0 0 0 0
0 0 0 0 0 0 0 0 0 0 0 0 0 0 0 0 0 0 0 0 0 0 0 0 0 0 0 0 0 0 0 0 0 0 0 0 0 0
0 0 0 0 0 0 0 0 0 0 0 0 0 0 0 0 0 0 0 0 0 0 0 0 0 0 0 0 0 0 0 0 0 0 0 0 0 0
0 0 0 0 0 0 0 0 0 0 0 0 0 0 0 0 0 0 0 0 0 0 0 0 0 0 0 0 0 0 0 0 0 0 0 0 0 0
0 0 0 0 0 0 0 0 0 0 0 0 0 0 0 0 0 0 0 0 0 0 0 0 0 0 0 0 0 0 0 1 1 1 0 0 0 0
0 0 0 0 0 0 0 0 0 0 0 0 0 0 0 0 0 0 0 0 0 0 0 0 0 0 0 0 0 0 0 1 2 2 1 1 0 0
0 0 0 0 0 0 0 0 0 0 0 0 0 0 0 0 0 0 0 0 0 0 0 0 0 0 0 0 0 0 0 1 1 2 2 2 1 0
0 0 0 0 0 0 0 0 0 0 0 0 0 0 0 0 0 0 0 0 0 0 0 0 0 0 0 0 0 0 0 0 0 1 2 2 1 0
0 0 0 0 0 0 0 0 0 0 0 0 0 0 0 0 0 0 0 0 0 0 0 0 0 0 0 0 0 0 0 0 0 0 1 1 0 0
0 0 0 0 0 0 0 0 0 0 0 0 0 0 0 0 0 0 0 0 0 0 0 0 0 0 0 0 0 0 0 0 0 0 0 0 0 0
0 0 0 0 0 0 0 0 0 0 0 0 0 0 0 0 0 0 0 0 0 0 0 0 0 0 0 0 0 0 0 0 0 0 0 0 0 0
0 0 0 0 0 0 0 0 0 0 0 0 0 0 0 0 0 0 0 0 0 0 0 0 0 0 0 0 0 0 0 0 0 0 0 0 0 0
0 0 0 0 0 0 0 0 0 0 0 0 0 0 0 0 0 0 0 0 0 0 0 0 0 0 0 0 0 0 0 0 0 0 0 0 0 0
0 0 0 0 0 0 0 0 0 0 0 0 0 0 0 0 0 0 0 0 0 0 0 0 0 0 0 0 0 0 0 0 0 0 0 0 0 0
0 0 0 0 0 0 0 0 0 0 0 0 0 0 0 0 0 0 0 0 0 0 0 0 0 0 0 0 0 0 0 0 0 0 0 0 0 0
Wind_Speed
2 2 1 1 1 1 1 2 2 1 2 3 2 2 2 2 4 4 5 8 11 13 14 15 15 15 16 17 17 17 17 17 17 16 17 18 19 18
2 3 2 2 2 1 1 1 2 2 2 2 2 3 3 4 4 4 5 8 11 12 13 14 15 15 15 16 16 16 16 16 16 16 17 17 17 17
3 3 3 3 2 2 1 1 1 2 3 3 2 2 3 4 4 3 4 4 5 10 12 14 15 15 15 15 16 16 16 16 16 17 17 18 18 18
4 3 4 3 3 2 1 1 2 2 3 4 3 2 3 4 4 4 4 4 4 8 11 12 13 14 14 15 15 15 16 16 16 17 17 19 19 19
3 3 4 3 3 2 2 2 2 2 2 3 3 2 3 2 3 3 4 3 4 5 8 10 12 13 14 14 14 15 15 16 16 17 17 17 18 19
3 3 3 3 4 3 3 3 2 2 2 2 3 3 3 3 2 3 3 2 3 4 5 6 8 11 13 14 15 15 16 16 16 17 17 17 17 18
4 3 4 5 5 3 2 2 2 2 2 2 3 2 3 2 2 2 3 3 4 3 3 3 4 5 6 10 13 15 16 16 16 17 17 17 18 18
4 4 5 4 5 6 7 5 3 2 3 2 3 3 4 3 3 3 3 3 3 2 2 3 3 5 5 5 9 13 15 17 17 17 17 18 18 19
4 4 4 4 5 4 5 7 6 6 5 4 5 5 4 3 3 4 4 4 5 3 2 4 3 5 5 6 11 13 15 16 16 17 18 18 19 19
4 4 4 5 4 4 3 4 5 5 5 4 5 6 6 5 5 5 5 6 5 4 3 4 3 4 4 5 10 14 14 15 16 16 17 18 18 19
4 4 4 5 8 7 4 5 6 5 6 7 8 9 12 12 8 5 5 5 5 4 3 4 3 3 3 5 7 12 13 14 15 16 17 17 17 17
4 4 6 6 8 7 4 4 6 6 5 6 6 7 7 8 9 6 5 5 4 4 3 3 3 2 3 3 3 4 6 10 13 14 15 16 16 12
4 3 3 6 7 7 6 4 8 8 6 6 6 6 5 4 4 4 5 5 6 5 3 3 3 3 4 3 3 3 4 5 6 8 12 15 16 14
5 4 4 6 7 7 6 7 11 9 4 4 5 5 5 5 4 4 5 6 7 8 6 4 4 4 5 5 5 3 3 4 5 5 6 9 12 15
4 5 5 5 5 5 7 9 8 3 3 4 5 5 4 4 4 4 4 5 6 7 7 7 7 6 6 6 5 4 3 3 5 6 6 6 7 7
1 2 3 3 3 4 5 5 3 3 3 4 5 5 4 4 4 3 4 4 4 4 4 6 7 7 6 7 6 6 5 4 3 5 5 6 6 7
2 2 2 3 4 4 3 4 3 3 3 3 4 5 5 5 5 3 3 3 4 4 5 3 4 5 6 6 6 6 6 6 5 5 6 6 6 7
5 3 3 3 3 4 5 5 4 4 4 4 4 4 5 5 5 4 3 4 5 5 5 4 3 3 3 4 7 7 6 6 5 5 6 7 7 6
6 4 3 4 3 4 4 4 4 5 4 4 5 5 5 5 5 5 5 5 5 6 5 4 3 3 5 6 4 7 6 5 4 5 6 6 6 6
4 4 4 4 4 4 4 4 4 5 5 5 5 5 5 5 5 5 5 6 6 6 6 4 4 5 6 6 4 4 7 6 5 6 5 4 2 2
3 3 3 3 3 4 4 4 4 4 5 5 6 6 6 6 6 6 6 8 7 6 7 6 5 7 5 4 5 4 4 7 7 5 4 4 3 3
2 2 3 3 3 3 3 3 4 4 4 4 5 5 6 6 7 9 8 8 7 7 8 7 5 4 4 6 7 7 4 3 5 6 6 5 4 6
2 2 2 3 3 3 3 3 4 4 4 4 4 5 5 6 6 7 8 8 8 9 8 7 5 4 6 7 8 7 6 5 3 3 4 4 6 6
Wind_Direction
358 358 347 319 309 271 234 197 191 253 280 282 292 305 302 276 263 245 242 240 236 232 231 230 229 227 226 225 224 224 224 224 223 220 217 219 220 219
353 5 355 329 322 313 280 239 210 213 255 271 268 287 302 297 284 266 253 254 246 240 236 234 232 229 227 226 224 221 220 220 220 219 217 216 218 218
355 353 340 330 330 323 311 265 233 217 247 274 272 284 284 290 299 284 266 250 250 244 238 236 233 231 229 227 224 221 219 219 218 219 218 217 216 216
341 340 332 335 334 320 304 274 248 230 234 267 281 286 276 281 281 283 276 263 251 250 242 237 234 232 229 227 226 223 220 219 218 217 218 219 218 216
315 318 314 324 321 313 304 288 269 256 231 255 278 277 283 290 294 286 276 269 264 260 249 240 235 233 231 227 226 224 221 219 218 216 216 218 218 216
302 299 297 288 280 289 293 284 273 270 256 261 274 279 279 289 288 289 294 279 277 274 260 248 239 236 233 229 225 223 221 219 218 217 215 215 215 214
310 307 300 300 295 286 289 281 265 262 263 266 276 279 282 290 285 282 287 297 282 255 260 253 240 237 233 232 230 227 223 220 218 217 216 215 214 212
298 306 306 310 319 330 330 326 298 261 257 253 266 275 279 271 268 271 281 298 294 275 261 267 234 245 239 229 228 225 225 222 219 217 216 216 214 211
269 286 300 310 325 314 319 328 324 309 282 257 262 267 270 262 268 276 268 264 262 266 276 273 246 251 245 236 229 227 226 226 223 220 219 217 215 213
254 257 268 287 295 299 300 307 302 293 284 270 251 260 261 263 252 261 272 275 270 258 228 259 253 250 252 239 234 230 228 226 224 221 220 218 216 214
260 251 252 267 287 300 298 299 302 295 283 270 269 274 278 279 274 265 263 267 274 263 214 232 249 258 259 251 241 232 231 229 227 224 222 220 216 213
272 260 258 263 280 292 283 286 295 295 302 306 299 295 288 282 278 255 250 260 266 269 224 215 237 243 273 260 246 235 232 233 231 229 225 222 214 213
266 267 259 270 279 288 288 267 277 290 291 293 295 295 292 281 270 256 242 247 255 256 235 215 239 229 243 271 275 243 234 236 230 232 227 222 215 210
248 255 262 279 287 295 296 291 298 303 291 290 289 288 289 287 281 272 259 250 248 255 257 238 248 247 253 260 262 252 237 233 230 233 228 218 217 215
243 257 277 294 306 309 310 315 317 306 294 288 285 283 276 276 286 287 280 270 264 257 254 247 249 254 252 254 253 245 250 244 228 232 230 224 218 211
270 313 332 344 339 320 324 329 321 294 289 284 288 288 288 288 288 285 285 294 290 283 260 246 245 247 255 255 253 253 236 233 225 225 234 234 223 216
81 54 34 15 6 356 343 331 323 324 317 295 293 299 300 298 294 290 278 279 276 285 293 282 256 250 252 253 255 252 247 244 238 231 230 241 235 222
81 56 37 21 3 351 343 337 331 332 326 317 310 304 303 301 300 298 285 283 285 283 281 282 288 283 268 253 234 247 247 247 242 231 226 235 241 228
62 50 33 14 359 349 341 336 331 328 324 323 321 319 314 309 305 304 301 295 291 287 282 273 265 268 278 281 258 219 233 242 234 233 231 230 236 225
44 37 23 6 358 354 346 340 337 341 345 342 338 334 327 319 313 309 304 299 300 298 292 275 256 253 260 272 274 249 218 227 233 237 232 227 236 219
28 21 11 1 355 351 347 344 348 353 352 350 348 343 338 331 322 314 307 302 296 293 292 287 270 257 260 259 262 259 236 221 227 230 213 208 212 206
5 357 350 346 342 339 339 340 341 345 345 344 339 336 333 330 326 324 319 311 301 292 288 286 277 258 243 252 262 265 258 237 232 235 228 214 202 204
321 319 319 317 314 313 315 320 325 324 323 324 325 325 325 324 322 320 319 318 313 308 302 296 284 259 254 253 260 261 253 242 228 229 238 245 240 240